When you browse on this site, cookies collect data to enhance your experience and personalize the content and advertising you see.
Visit our Privacy Policy to learn more. By continuing to use the site, you agree to this use of cookies and data.
  • In Lithuania
  • List of Countries
  • For 7 days
  • Water Temperature
  • Satellite Maps
  • Weather Map
  • Weather Widgets
  • user-avatar
    Login

    Hourly Weather Krasnyy Kolos

    Today, 22 March, Friday

    Time Temperature Precipitation Wind Pressure Humidity
    00:00 +7°C° 0 mm 3 mps 757 mmHg 57%
    01:00 +5°C° 0.1 mm 3 mps 757 mmHg 61%
    02:00 +5°C° 0.1 mm 3 mps 757 mmHg 65%
    03:00 +4°C° 0 mm 3 mps 757 mmHg 72%
    04:00 +3°C° 0 mm 3 mps 757 mmHg 75%
    05:00 +3°C° 0 mm 3 mps 757 mmHg 78%
    06:00 +2°C° 0 mm 3 mps 757 mmHg 81%
    07:00 +3°C° 0 mm 3 mps 757 mmHg 76%
    08:00 +3°C° 0 mm 4 mps 757 mmHg 71%
    09:00 +4°C° 0 mm 4 mps 757 mmHg 66%
    10:00 +5°C° 0 mm 4 mps 757 mmHg 61%
    11:00 +6°C° 0 mm 5 mps 757 mmHg 56%
    12:00 +6°C° 0 mm 5 mps 756 mmHg 51%
    13:00 +7°C° 0 mm 5 mps 756 mmHg 49%
    14:00 +7°C° 0 mm 5 mps 756 mmHg 47%
    15:00 +8°C° 0 mm 5 mps 755 mmHg 46%
    16:00 +7°C° 0 mm 6 mps 755 mmHg 48%
    17:00 +7°C° 0 mm 6 mps 754 mmHg 51%
    18:00 +6°C° 0 mm 7 mps 754 mmHg 53%
    19:00 +5°C° 0 mm 7 mps 753 mmHg 58%
    20:00 +5°C° 0 mm 7 mps 752 mmHg 63%
    21:00 +4°C° 0 mm 8 mps 751 mmHg 68%
    22:00 +4°C° 0.8 mm 8 mps 750 mmHg 73%
    23:00 +3°C° 0.8 mm 9 mps 749 mmHg 78%

    Tomorrow, 23 March, Saturday

    Time Temperature Precipitation Wind Pressure Humidity
    00:00 +3°C° 0.8 mm 9 mps 748 mmHg 83%
    01:00 +2°C° 0.4 mm 8 mps 748 mmHg 78%
    02:00 +3°C° 0.4 mm 7 mps 748 mmHg 73%
    03:00 +3°C° 0.4 mm 6 mps 748 mmHg 68%
    04:00 +2°C° 0 mm 5 mps 749 mmHg 68%
    05:00 +1°C° 0 mm 5 mps 749 mmHg 68%
    06:00 0°C° 0 mm 5 mps 749 mmHg 68%
    07:00 0°C° 0 mm 5 mps 750 mmHg 65%
    08:00 +1°C° 0 mm 5 mps 750 mmHg 62%
    09:00 +1°C° 0 mm 5 mps 750 mmHg 59%
    10:00 +2°C° 0 mm 5 mps 750 mmHg 55%
    11:00 +2°C° 0 mm 5 mps 750 mmHg 52%
    12:00 +3°C° 0 mm 5 mps 750 mmHg 48%
    13:00 +4°C° 0.1 mm 4 mps 750 mmHg 47%
    14:00 +5°C° 0.1 mm 4 mps 750 mmHg 45%
    15:00 +5°C° 0.1 mm 4 mps 750 mmHg 44%
    16:00 +5°C° 0.1 mm 4 mps 750 mmHg 46%
    17:00 +5°C° 0.1 mm 4 mps 750 mmHg 47%
    18:00 +4°C° 0.1 mm 3 mps 750 mmHg 49%
    19:00 +4°C° 0 mm 3 mps 751 mmHg 53%
    20:00 +3°C° 0 mm 3 mps 751 mmHg 58%
    21:00 +2°C° 0 mm 3 mps 751 mmHg 63%
    22:00 +2°C° 0 mm 3 mps 751 mmHg 66%
    23:00 +3°C° 0 mm 2 mps 752 mmHg 69%

    Day after tomorrow, 24 March, Sunday

    Time Temperature Precipitation Wind Pressure Humidity
    00:00 +3°C° 0 mm 2 mps 752 mmHg 73%
    01:00 +2°C° 0.1 mm 2 mps 752 mmHg 75%
    02:00 +2°C° 0.1 mm 2 mps 752 mmHg 77%
    03:00 +1°C° 0.1 mm 3 mps 752 mmHg 79%
    04:00 +1°C° 0.1 mm 3 mps 752 mmHg 81%
    05:00 +2°C° 0.1 mm 2 mps 752 mmHg 83%
    06:00 +1°C° 0.1 mm 2 mps 752 mmHg 84%
    07:00 +2°C° 0 mm 2 mps 753 mmHg 83%
    08:00 +3°C° 0 mm 2 mps 753 mmHg 81%
    09:00 +3°C° 0 mm 2 mps 753 mmHg 79%
    10:00 +4°C° 0 mm 2 mps 753 mmHg 74%
    11:00 +5°C° 0 mm 2 mps 753 mmHg 69%
    12:00 +7°C° 0 mm 1 mps 753 mmHg 64%
    13:00 +7°C° 0.2 mm 1 mps 753 mmHg 60%
    14:00 +7°C° 0.2 mm 2 mps 753 mmHg 57%
    15:00 +7°C° 0.2 mm 2 mps 753 mmHg 53%
    16:00 +7°C° 0.1 mm 2 mps 753 mmHg 55%
    17:00 +7°C° 0.1 mm 2 mps 753 mmHg 56%
    18:00 +7°C° 0.1 mm 3 mps 753 mmHg 57%
    19:00 +5°C° 0 mm 3 mps 753 mmHg 61%
    20:00 +4°C° 0 mm 3 mps 754 mmHg 65%
    21:00 +3°C° 0 mm 3 mps 754 mmHg 69%
    22:00 +4°C° 0 mm 2 mps 754 mmHg 70%
    23:00 +4°C° 0 mm 2 mps 753 mmHg 71%

    25 March, Monday

    Time Temperature Precipitation Wind Pressure Humidity
    00:00 +3°C° 0 mm 2 mps 753 mmHg 72%
    01:00 +3°C° 0 mm 2 mps 753 mmHg 73%
    02:00 +3°C° 0 mm 2 mps 753 mmHg 74%
    03:00 +2°C° 0 mm 2 mps 753 mmHg 75%
    04:00 +1°C° 0 mm 3 mps 753 mmHg 76%
    05:00 +1°C° 0 mm 3 mps 752 mmHg 77%
    06:00 +1°C° 0 mm 3 mps 752 mmHg 78%
    07:00 +1°C° 0 mm 4 mps 752 mmHg 74%
    08:00 +2°C° 0 mm 5 mps 752 mmHg 71%
    09:00 +3°C° 0 mm 5 mps 752 mmHg 67%
    10:00 +4°C° 0 mm 6 mps 752 mmHg 66%
    11:00 +5°C° 0 mm 6 mps 752 mmHg 65%
    12:00 +5°C° 0 mm 7 mps 752 mmHg 64%
    13:00 +6°C° 0 mm 7 mps 751 mmHg 64%
    14:00 +6°C° 0 mm 7 mps 751 mmHg 65%
    15:00 +6°C° 0 mm 7 mps 750 mmHg 65%
    16:00 +6°C° 0 mm 7 mps 750 mmHg 68%
    17:00 +5°C° 0 mm 6 mps 750 mmHg 72%
    18:00 +6°C° 0 mm 5 mps 750 mmHg 76%
    19:00 +5°C° 0.1 mm 5 mps 751 mmHg 78%
    20:00 +5°C° 0.1 mm 4 mps 751 mmHg 80%
    21:00 +5°C° 0.1 mm 4 mps 751 mmHg 83%
    22:00 +4°C° 0.1 mm 3 mps 751 mmHg 85%
    23:00 +4°C° 0.1 mm 3 mps 751 mmHg 86%

    26 March, Tuesday

    Time Temperature Precipitation Wind Pressure Humidity
    00:00 +4°C° 0.1 mm 3 mps 751 mmHg 88%
    01:00 +5°C° 0 mm 2 mps 751 mmHg 89%
    02:00 +4°C° 0 mm 2 mps 751 mmHg 89%
    03:00 +5°C° 0 mm 1 mps 752 mmHg 90%
    04:00 +5°C° 0 mm 1 mps 752 mmHg 89%
    05:00 +4°C° 0 mm 0 mps 752 mmHg 89%
    06:00 +4°C° 0 mm 0 mps 752 mmHg 88%
    07:00 +6°C° 0 mm 1 mps 752 mmHg 82%
    08:00 +7°C° 0 mm 1 mps 753 mmHg 77%
    09:00 +7°C° 0 mm 1 mps 753 mmHg 72%
    10:00 +8°C° 0 mm 1 mps 753 mmHg 67%
    11:00 +8°C° 0 mm 2 mps 753 mmHg 62%
    12:00 +9°C° 0 mm 2 mps 753 mmHg 57%
    13:00 +9°C° 0.1 mm 2 mps 753 mmHg 55%
    14:00 +9°C° 0.1 mm 2 mps 753 mmHg 54%
    15:00 +10°C° 0.1 mm 2 mps 753 mmHg 52%
    16:00 +10°C° 0.1 mm 1 mps 754 mmHg 53%
    17:00 +10°C° 0.1 mm 1 mps 754 mmHg 53%
    18:00 +10°C° 0.1 mm 1 mps 754 mmHg 53%
    19:00 +9°C° 0 mm 1 mps 754 mmHg 56%
    20:00 +9°C° 0 mm 1 mps 755 mmHg 58%
    21:00 +7°C° 0 mm 0 mps 755 mmHg 61%
    22:00 +7°C° 0 mm 1 mps 755 mmHg 61%
    23:00 +7°C° 0 mm 1 mps 756 mmHg 60%

    27 March, Wednesday

    Time Temperature Precipitation Wind Pressure Humidity
    00:00 +6°C° 0 mm 2 mps 756 mmHg 60%
    01:00 +5°C° 0 mm 2 mps 756 mmHg 61%
    02:00 +5°C° 0 mm 2 mps 756 mmHg 62%
    03:00 +4°C° 0 mm 2 mps 756 mmHg 63%
    04:00 +4°C° 0 mm 2 mps 757 mmHg 65%
    05:00 +4°C° 0 mm 2 mps 757 mmHg 66%
    06:00 +3°C° 0 mm 2 mps 757 mmHg 68%
    07:00 +5°C° 0 mm 2 mps 758 mmHg 63%
    08:00 +6°C° 0 mm 2 mps 758 mmHg 58%
    09:00 +7°C° 0 mm 2 mps 758 mmHg 53%
    10:00 +8°C° 0 mm 3 mps 758 mmHg 48%
    11:00 +9°C° 0 mm 3 mps 758 mmHg 43%
    12:00 +10°C° 0 mm 3 mps 758 mmHg 38%
    13:00 +11°C° 0 mm 3 mps 758 mmHg 35%
    14:00 +11°C° 0 mm 3 mps 758 mmHg 33%
    15:00 +12°C° 0 mm 4 mps 758 mmHg 30%
    16:00 +11°C° 0 mm 3 mps 758 mmHg 33%
    17:00 +11°C° 0 mm 3 mps 758 mmHg 35%
    18:00 +10°C° 0 mm 3 mps 758 mmHg 37%
    19:00 +9°C° 0 mm 3 mps 758 mmHg 40%
    20:00 +8°C° 0 mm 2 mps 759 mmHg 43%
    21:00 +7°C° 0 mm 2 mps 759 mmHg 45%
    22:00 +7°C° 0 mm 2 mps 759 mmHg 45%
    23:00 +6°C° 0 mm 2 mps 759 mmHg 45%
    Show more